Location: Hradec Kralove
(50.2170°N, 15.8330°E)
Time: 11:56:32
(UTC+02:00)

Explorer 7 - Pass Details

Date: 31 January 2023
Orbit: 478 x 657 km, 50.3° (Epoch: 26 March)

Event Time Altitude Azimuth Distance (km) Brightness Sun altitude
Rises 15:39:49 0° 268° (W) 2,800 11.3 8.2°
Reaches altitude 10° 15:42:02 10° 269° (W) 1,931 10.6 8.0°
Maximum altitude 15:46:30 88° 356° (N) 626 7.3 7.4°
Drops below altitude 10° 15:51:12 10° 89° (E) 2,032 9.3 6.8°
Sets 15:53:35 0° 90° (E) 2,961 10.1 6.5°
